Cloud_Cover
100 87 100 100 100 100 100 100 100 100 55 100 100 48 85 51 54 69 69 17 51 68 58 17 34 5 5 5 53 52 96 100 100 100 89 11 48 34 14 1 0 15 2 2 0 0 0 0 0
100 100 100 100 100 100 100 100 92 62 32 100 99 60 58 57 5 27 35 25 92 100 70 59 5 5 5 5 5 5 100 67 100 100 88 100 56 84 3 0 0 17 51 40 24 0 0 0 0
100 100 100 100 100 100 100 100 10 32 100 100 44 75 25 13 6 44 37 15 77 100 100 7 5 5 5 5 5 5 77 95 100 6 30 44 64 11 19 44 0 2 89 100 50 0 0 0 0
100 100 100 100 100 100 89 76 48 100 78 98 100 84 8 36 69 100 23 81 100 100 92 40 5 5 5 6 6 8 53 100 40 100 78 45 100 100 1 1 0 0 28 16 51 0 0 0 0
100 100 100 100 100 53 92 9 35 100 88 80 74 87 96 47 100 100 88 23 25 38 64 23 5 5 5 31 56 5 5 8 36 39 20 68 97 3 0 0 3 0 1 0 0 0 0 0 0
100 86 100 100 100 95 99 98 87 93 39 99 80 100 94 96 99 89 56 38 17 23 16 37 35 3 5 7 6 5 5 52 5 8 38 91 93 23 1 3 0 0 0 0 0 0 0 0 0
100 99 100 100 100 73 99 93 98 74 75 100 100 100 17 100 98 92 83 97 96 39 13 68 52 34 10 7 5 6 5 36 82 100 100 1 0 0 3 0 2 0 0 0 0 0 0 0 0
100 100 100 100 100 100 98 99 28 53 100 81 62 100 45 73 100 100 100 100 100 45 34 100 86 23 10 9 20 5 5 10 95 100 100 92 0 0 0 0 0 0 0 0 0 0 0 0 0
100 97 100 100 61 100 100 100 77 80 100 65 52 79 17 32 100 97 100 100 100 42 42 100 92 71 26 67 35 22 6 3 30 1 12 6 13 13 38 38 0 0 0 0 0 0 0 0 0
100 100 100 60 55 90 97 100 96 88 100 100 65 72 87 100 100 71 100 100 100 100 74 100 99 61 21 5 0 4 1 0 1 2 10 17 26 18 1 6 0 0 0 0 0 0 0 0 0
100 100 98 100 94 100 100 99 100 100 100 100 100 100 100 100 100 100 95 59 99 58 73 100 95 72 5 0 4 5 0 9 12 17 18 20 7 0 17 0 1 0 0 0 0 0 0 0 0
100 100 100 100 92 89 100 89 77 55 100 100 100 100 100 100 100 97 65 48 100 100 31 78 28 99 6 0 4 1 0 0 0 12 14 0 0 0 0 0 0 6 5 0 0 0 0 0 0
100 100 100 100 100 94 86 86 75 15 100 100 100 100 100 100 100 98 66 34 47 100 56 70 82 100 9 4 1 0 0 1 2 0 1 3 0 0 0 0 0 1 3 5 5 0 2 0 0
100 100 100 100 80 100 76 87 100 12 69 85 58 100 92 68 100 99 100 44 5 100 26 100 100 100 24 96 15 2 0 5 44 5 5 5 5 4 3 5 10 10 8 8 11 50 6 2 2
100 100 100 100 100 100 100 99 100 100 46 23 5 93 66 100 100 100 59 26 3 5 85 100 100 100 97 68 3 4 5 0 5 5 5 5 62 92 100 100 68 33 5 12 37 7 24 39 35
100 100 100 100 90 100 92 53 100 26 5 14 5 5 100 23 100 100 76 100 75 42 24 100 100 100 98 72 22 8 17 6 30 100 100 100 94 95 16 12 29 39 64 100 100 48 17 36 96
100 100 100 100 100 100 62 94 77 100 10 5 5 12 31 86 2 36 100 100 90 100 97 73 78 100 100 43 51 50 16 8 3 47 75 100 100 100 87 33 95 93 82 23 100 98 12 5 77
100 100 100 100 100 100 96 100 100 77 66 39 19 13 9 5 2 2 9 39 64 84 100 100 100 100 100 12 96 98 100 94 5 13 20 79 38 100 100 100 99 79 83 5 39 74 95 98 99
100 100 100 100 100 100 100 100 100 69 49 9 35 72 5 5 5 5 5 5 82 100 100 76 100 100 100 5 69 10 100 100 72 16 56 36 5 72 100 100 100 78 100 81 88 98 98 73 100
100 100 100 100 100 100 100 100 100 23 6 20 5 19 8 5 5 5 5 1 5 90 24 98 89 100 97 99 100 100 88 40 2 6 82 38 19 8 22 78 100 99 100 100 100 100 100 100 100
100 100 100 100 100 100 100 100 100 66 56 19 5 28 51 5 5 7 79 18 40 100 65 93 46 71 80 99 100 100 100 100 99 100 84 72 5 76 100 100 100 100 100 94 100 100 100 100 100
100 100 100 100 100 100 100 100 100 99 8 6 91 9 58 25 11 21 31 81 100 88 5 5 16 19 22 6 100 100 100 100 64 88 30 47 95 100 58 96 100 100 100 30 100 99 100 100 100
100 100 100 100 100 100 100 100 100 100 72 100 100 100 100 94 96 46 68 59 74 6 16 82 94 86 43 12 100 100 100 100 100 100 100 100 100 76 5 6 71 100 100 100 100 100 100 100 100
100 100 100 100 100 100 100 100 100 100 100 100 100 94 70 99 82 32 95 42 17 16 20 36 88 100 85 99 100 100 100 100 100 100 100 100 100 79 100 82 99 91 100 100 100 100 100 100 100
100 100 100 100 100 90 100 100 100 100 100 100 100 100 100 100 94 66 14 68 88 100 94 56 5 87 100 100 100 100 79 74 100 100 92 100 100 99 87 100 100 100 100 100 100 100 100 100 96
100 100 100 100 59 100 100 100 100 100 100 100 100 100 69 99 98 90 30 64 96 60 86 100 97 84 91 100 100 100 100 26 54 54 30 100 100 100 16 100 100 100 100 100 100 100 100 100 100
100 100 100 100 100 100 94 100 100 100 100 76 100 100 6 4 100 100 86 18 59 73 99 76 99 100 75 100 99 100 100 100 100 100 100 100 93 98 100 100 100 100 83 100 100 100 100 100 100
96 100 100 100 100 100 100 100 100 100 100 100 86 92 97 5 7 83 100 100 100 77 50 89 90 97 98 100 100 100 97 98 90 75 100 84 100 100 100 100 100 100 100 100 98 100 100 91 98
100 100 100 100 100 71 100 100 100 100 100 100 100 100 92 83 36 18 63 58 100 100 74 52 15 5 8 48 96 100 100 100 100 100 100 100 100 94 100 100 100 100 100 100 100 100 100 100 100
100 100 100 100 100 100 100 100 100 100 100 100 100 100 98 5 6 10 82 6 17 42 100 81 78 13 94 33 49 54 97 100 100 100 100 100 100 100 100 100 100 100 100 100 100 100 100 100 100